EN

Hourly Weather Amathus

Today, 23 January, Saturday

Time Temperature Precipitation Wind Pressure Humidity
00:00 +8°C° 0 mm 4 mps 767 mmHg 73%
01:00 +7°C° 0 mm 4 mps 766 mmHg 71%
02:00 +7°C° 0 mm 4 mps 766 mmHg 69%
03:00 +7°C° 0 mm 4 mps 766 mmHg 71%
04:00 +7°C° 0 mm 4 mps 766 mmHg 72%
05:00 +7°C° 0 mm 5 mps 765 mmHg 73%
06:00 +8°C° 0 mm 4 mps 765 mmHg 74%
07:00 +8°C° 0 mm 4 mps 765 mmHg 74%
08:00 +10°C° 0 mm 4 mps 766 mmHg 74%
09:00 +11°C° 0 mm 4 mps 765 mmHg 67%
10:00 +13°C° 0 mm 4 mps 765 mmHg 59%
11:00 +14°C° 0 mm 4 mps 765 mmHg 52%
12:00 +15°C° 0 mm 4 mps 765 mmHg 52%
13:00 +15°C° 0 mm 4 mps 764 mmHg 52%
14:00 +17°C° 0 mm 4 mps 764 mmHg 52%
15:00 +14°C° 0 mm 4 mps 764 mmHg 59%
16:00 +13°C° 0 mm 4 mps 764 mmHg 66%
17:00 +12°C° 0 mm 4 mps 764 mmHg 74%
18:00 +11°C° 0 mm 4 mps 764 mmHg 76%
19:00 +10°C° 0 mm 3 mps 764 mmHg 78%
20:00 +10°C° 0 mm 3 mps 764 mmHg 80%
21:00 +9°C° 0 mm 3 mps 764 mmHg 80%
22:00 +9°C° 0 mm 3 mps 764 mmHg 79%
23:00 +9°C° 0 mm 3 mps 764 mmHg 79%

Tomorrow, 24 January, Sunday

Time Temperature Precipitation Wind Pressure Humidity
00:00 +9°C° 0 mm 3 mps 764 mmHg 77%
01:00 +9°C° 0 mm 3 mps 764 mmHg 76%
02:00 +8°C° 0 mm 3 mps 764 mmHg 74%
03:00 +8°C° 0 mm 3 mps 763 mmHg 73%
04:00 +8°C° 0 mm 3 mps 763 mmHg 73%
05:00 +8°C° 0 mm 2 mps 763 mmHg 72%
06:00 +9°C° 0 mm 3 mps 764 mmHg 72%
07:00 +9°C° 0 mm 3 mps 764 mmHg 72%
08:00 +10°C° 0 mm 3 mps 764 mmHg 72%
09:00 +11°C° 0 mm 3 mps 764 mmHg 65%
10:00 +13°C° 0 mm 3 mps 764 mmHg 58%
11:00 +14°C° 0 mm 3 mps 764 mmHg 52%
12:00 +16°C° 0 mm 3 mps 764 mmHg 51%
13:00 +16°C° 0 mm 3 mps 764 mmHg 50%
14:00 +17°C° 0 mm 2 mps 763 mmHg 50%
15:00 +15°C° 0 mm 2 mps 763 mmHg 57%
16:00 +14°C° 0 mm 2 mps 763 mmHg 63%
17:00 +13°C° 0 mm 2 mps 763 mmHg 70%
18:00 +12°C° 0 mm 2 mps 764 mmHg 73%
19:00 +12°C° 0 mm 2 mps 764 mmHg 76%
20:00 +10°C° 0 mm 2 mps 764 mmHg 79%
21:00 +10°C° 0 mm 2 mps 764 mmHg 80%
22:00 +9°C° 0 mm 2 mps 764 mmHg 80%
23:00 +9°C° 0 mm 2 mps 764 mmHg 80%

Day after tomorrow, 25 January, Monday

Time Temperature Precipitation Wind Pressure Humidity
00:00 +9°C° 0 mm 2 mps 764 mmHg 80%
01:00 +9°C° 0 mm 2 mps 763 mmHg 79%
02:00 +9°C° 0 mm 2 mps 763 mmHg 79%
03:00 +8°C° 0 mm 2 mps 763 mmHg 79%
04:00 +8°C° 0 mm 2 mps 763 mmHg 78%
05:00 +8°C° 0 mm 2 mps 763 mmHg 78%
06:00 +9°C° 0 mm 2 mps 763 mmHg 77%
07:00 +10°C° 0 mm 2 mps 764 mmHg 75%
08:00 +12°C° 0 mm 2 mps 764 mmHg 74%
09:00 +13°C° 0 mm 2 mps 764 mmHg 67%
10:00 +15°C° 0 mm 1 mps 764 mmHg 61%
11:00 +16°C° 0 mm 1 mps 764 mmHg 55%
12:00 +18°C° 0 mm 1 mps 764 mmHg 55%
13:00 +17°C° 0 mm 2 mps 764 mmHg 55%
14:00 +18°C° 0 mm 2 mps 763 mmHg 55%
15:00 +16°C° 0 mm 2 mps 763 mmHg 61%
16:00 +15°C° 0 mm 1 mps 763 mmHg 68%
17:00 +14°C° 0 mm 1 mps 763 mmHg 75%
18:00 +14°C° 0 mm 1 mps 764 mmHg 78%
19:00 +13°C° 0 mm 1 mps 764 mmHg 81%
20:00 +11°C° 0 mm 0 mps 764 mmHg 84%
21:00 +12°C° 0 mm 1 mps 764 mmHg 84%
22:00 +12°C° 0 mm 1 mps 764 mmHg 84%
23:00 +12°C° 0 mm 1 mps 764 mmHg 84%

26 January, Tuesday

Time Temperature Precipitation Wind Pressure Humidity
00:00 +12°C° 0 mm 1 mps 764 mmHg 83%
01:00 +12°C° 0 mm 1 mps 764 mmHg 82%
02:00 +12°C° 0 mm 2 mps 764 mmHg 81%
03:00 +10°C° 0 mm 2 mps 764 mmHg 81%
04:00 +10°C° 0 mm 2 mps 763 mmHg 80%
05:00 +10°C° 0 mm 2 mps 763 mmHg 80%
06:00 +12°C° 0 mm 2 mps 763 mmHg 78%
07:00 +12°C° 0 mm 2 mps 764 mmHg 76%
08:00 +13°C° 0 mm 2 mps 764 mmHg 73%
09:00 +15°C° 0 mm 2 mps 764 mmHg 67%
10:00 +16°C° 0 mm 2 mps 763 mmHg 61%
11:00 +17°C° 0 mm 2 mps 763 mmHg 55%
12:00 +17°C° 0 mm 2 mps 763 mmHg 56%
13:00 +17°C° 0 mm 2 mps 762 mmHg 57%
14:00 +18°C° 0 mm 2 mps 762 mmHg 57%
15:00 +18°C° 0 mm 1 mps 762 mmHg 64%
16:00 +16°C° 0 mm 1 mps 762 mmHg 71%
17:00 +15°C° 0 mm 1 mps 761 mmHg 77%
18:00 +14°C° 0 mm 1 mps 761 mmHg 77%
19:00 +14°C° 0 mm 2 mps 761 mmHg 77%
20:00 +14°C° 0 mm 2 mps 761 mmHg 77%
21:00 +14°C° 0 mm 2 mps 761 mmHg 76%
22:00 +13°C° 0 mm 2 mps 761 mmHg 74%
23:00 +13°C° 0 mm 2 mps 760 mmHg 72%

27 January, Wednesday

Time Temperature Precipitation Wind Pressure Humidity
00:00 +13°C° 0 mm 2 mps 760 mmHg 72%
01:00 +12°C° 0 mm 3 mps 759 mmHg 72%
02:00 +12°C° 0 mm 3 mps 759 mmHg 72%
03:00 +12°C° 0 mm 3 mps 758 mmHg 72%
04:00 +11°C° 0 mm 3 mps 757 mmHg 72%
05:00 +11°C° 0 mm 3 mps 756 mmHg 72%
06:00 +13°C° 0 mm 2 mps 756 mmHg 72%
07:00 +13°C° 0 mm 2 mps 756 mmHg 73%
08:00 +14°C° 0 mm 2 mps 756 mmHg 73%
09:00 +15°C° 0 mm 2 mps 755 mmHg 72%
10:00 +16°C° 0 mm 3 mps 755 mmHg 70%
11:00 +15°C° 0 mm 4 mps 754 mmHg 69%
12:00 +15°C° 1.3 mm 6 mps 753 mmHg 76%
13:00 +13°C° 1.3 mm 8 mps 752 mmHg 84%
14:00 +12°C° 1.3 mm 11 mps 752 mmHg 91%
15:00 +12°C° 2.1 mm 10 mps 752 mmHg 88%
16:00 +12°C° 2.1 mm 10 mps 751 mmHg 86%
17:00 +12°C° 2.1 mm 10 mps 751 mmHg 84%
18:00 +12°C° 0.2 mm 10 mps 751 mmHg 82%
19:00 +11°C° 0.2 mm 10 mps 752 mmHg 80%
20:00 +11°C° 0.2 mm 10 mps 752 mmHg 79%
21:00 +11°C° 0 mm 10 mps 752 mmHg 78%
22:00 +11°C° 0 mm 10 mps 753 mmHg 78%
23:00 +9°C° 0 mm 10 mps 753 mmHg 78%

28 January, Thursday

Time Temperature Precipitation Wind Pressure Humidity
00:00 +9°C° 0 mm 10 mps 753 mmHg 78%
01:00 +9°C° 0 mm 10 mps 753 mmHg 78%
02:00 +9°C° 0 mm 10 mps 753 mmHg 77%
03:00 +9°C° 0.1 mm 10 mps 753 mmHg 76%
04:00 +8°C° 0.1 mm 9 mps 753 mmHg 75%
05:00 +8°C° 0.1 mm 9 mps 753 mmHg 74%
06:00 +8°C° 0 mm 10 mps 753 mmHg 70%
07:00 +8°C° 0 mm 10 mps 754 mmHg 66%
08:00 +8°C° 0 mm 11 mps 754 mmHg 62%
09:00 +8°C° 0 mm 12 mps 754 mmHg 63%
10:00 +9°C° 0 mm 12 mps 754 mmHg 63%
11:00 +10°C° 0 mm 13 mps 755 mmHg 63%
12:00 +10°C° 0.1 mm 13 mps 755 mmHg 61%
13:00 +9°C° 0.1 mm 13 mps 755 mmHg 60%
14:00 +9°C° 0.1 mm 12 mps 755 mmHg 58%
15:00 +9°C° 0 mm 11 mps 755 mmHg 60%
16:00 +8°C° 0 mm 10 mps 755 mmHg 62%
17:00 +7°C° 0 mm 9 mps 756 mmHg 65%
18:00 +7°C° 0 mm 8 mps 756 mmHg 65%
19:00 +6°C° 0 mm 7 mps 757 mmHg 66%
20:00 +6°C° 0 mm 7 mps 757 mmHg 66%
Show more